Theta_e
288 287 287 286 286 285 285 284 283 282 281 280 280 280 279 278 279 278 279 277 278 278
288 287 287 286 286 285 285 284 282 282 281 280 279 279 278 278 278 278 279 278 278 277
288 288 287 284 284 283 283 282 281 281 280 279 279 278 278 277 278 277 278 278 278 278
287 286 286 284 283 282 281 281 280 280 279 279 278 278 277 277 277 277 277 277 277 277
285 284 284 283 283 282 281 281 280 279 279 278 277 277 276 276 276 275 275 275 275 275
284 283 284 283 282 281 281 280 279 279 278 277 277 276 275 275 275 274 274 274 274 274
284 283 283 283 281 281 280 279 278 278 277 276 276 275 275 275 274 274 274 275 274 274
284 283 282 281 279 279 279 278 277 276 276 275 275 275 274 275 274 274 274 275 275 275
282 281 280 279 279 278 277 276 276 275 275 274 274 278 279 276 274 275 275 274 275 275
281 279 278 278 277 277 276 275 275 274 274 273 273 280 280 280 277 276 275 275 275 275
278 277 277 276 276 275 275 274 273 273 273 273 273 280 280 279 277 275 275 275 274 274
277 276 275 275 275 274 274 273 273 273 272 272 272 279 279 278 274 275 274 275 275 275
277 276 275 275 274 274 274 274 273 273 272 272 270 279 278 278 275 272 273 274 275 276
276 276 276 275 275 274 273 272 272 271 270 270 270 274 278 279 274 273 273 273 273 273
Wind_Speed
13 10 11 12 10 10 11 11 11 11 9 8 8 6 6 4 4 5 4 6 4 3
13 15 15 12 10 9 8 8 10 12 11 9 8 8 7 5 5 5 4 4 4 3
17 16 13 10 13 12 9 10 11 12 11 10 9 8 7 5 5 5 4 4 5 4
15 14 13 12 12 12 11 12 13 13 13 12 11 9 7 6 7 6 5 4 5 4
11 12 13 14 14 13 14 13 14 14 13 12 11 10 10 8 7 6 6 6 5 4
13 14 16 16 13 14 13 13 12 13 14 13 12 10 8 8 7 6 5 5 5 5
15 16 14 12 13 14 14 14 13 13 12 12 11 10 8 7 6 5 5 5 5 6
14 13 12 13 13 13 14 13 13 13 10 10 10 8 9 8 8 7 6 6 7 7
12 12 13 13 14 13 13 12 12 12 13 12 8 17 19 13 8 9 8 7 7 6
13 13 14 13 14 14 14 14 13 13 13 12 10 19 19 18 9 9 7 7 6 6
13 13 13 14 14 14 13 15 14 12 12 11 9 20 19 17 8 7 7 7 7 8
14 14 14 15 15 13 13 12 13 13 14 14 11 21 19 14 7 7 7 6 7 7
12 14 15 15 14 12 12 12 11 12 12 12 10 19 18 15 6 5 5 6 7 10
9 11 12 12 11 12 12 12 12 12 10 13 14 14 21 18 7 5 4 4 3 4
Wind_Direction
195 193 200 194 191 191 194 193 175 186 175 168 169 170 176 172 168 166 173 172 177 191
195 197 201 193 188 189 185 175 169 179 175 170 168 167 169 166 172 174 178 184 187 194
199 202 196 176 185 181 175 164 168 173 171 168 169 169 166 164 171 177 185 181 191 194
199 194 189 186 182 177 167 170 176 174 169 169 169 167 167 173 173 184 183 178 189 203
186 180 183 189 187 173 175 176 174 169 169 168 167 166 174 173 170 182 188 181 185 211
190 189 196 194 183 177 172 172 170 168 170 166 165 163 167 170 175 181 184 175 182 199
197 197 196 185 176 175 171 167 172 171 164 160 157 161 163 164 166 169 179 188 202 213
199 192 180 174 172 167 169 172 164 154 152 148 150 155 161 166 172 173 180 197 218 229
179 174 173 167 169 165 163 156 152 154 152 150 158 171 178 173 173 182 188 208 224 239
171 172 171 164 161 165 165 156 159 156 155 160 158 180 184 182 173 178 188 214 237 252
165 165 162 161 167 164 161 163 162 158 157 153 166 181 185 186 172 171 195 218 239 253
164 160 161 169 169 164 161 160 162 160 157 158 169 181 182 180 177 178 204 223 242 246
162 165 169 167 166 165 165 163 161 156 158 155 155 181 181 187 157 176 212 226 241 249
161 164 162 156 162 160 160 154 158 157 163 157 163 180 185 186 165 182 194 229 230 252